BAW384 EGLL-EBBR

Flight info

Callsign BAW384
Flight time N/A
Altitude 23000
Route DET Q70 KOK
Aircraft A320/M-SDE3FGHIJ1RWXY/S

Departure

Time 2026-05-07 18:47
Airport London Heathrow Airport (EGLL)

Arrival

Time N/A
Airport Brussels Airport (EBBR)
Time Latitude Longitude Altitude Speed Heading
2026-05-07 17:24 51.46916 -0.47715 90 ft 0 kts 90°
2026-05-07 18:29 51.46916 -0.47727 93 ft 4 kts 91°
2026-05-07 18:29 51.46917 -0.47769 89 ft 4 kts 94°
2026-05-07 18:29 51.46920 -0.47812 92 ft 4 kts 102°
2026-05-07 18:29 51.46928 -0.47852 91 ft 4 kts 128°
2026-05-07 18:30 51.46943 -0.47869 91 ft 0 kts 181°
2026-05-07 18:35 51.46936 -0.47869 92 ft 3 kts 181°
2026-05-07 18:35 51.46897 -0.47870 89 ft 8 kts 181°
2026-05-07 18:35 51.46826 -0.47872 89 ft 11 kts 180°
2026-05-07 18:35 51.46759 -0.47871 90 ft 10 kts 179°
2026-05-07 18:36 51.46681 -0.47874 89 ft 13 kts 198°
2026-05-07 18:36 51.46652 -0.48000 90 ft 0 kts 270°
2026-05-07 18:37 51.46652 -0.48006 90 ft 1 kts 270°
2026-05-07 18:42 51.46652 -0.48012 90 ft 3 kts 270°
2026-05-07 18:43 51.46653 -0.48081 92 ft 9 kts 271°
2026-05-07 18:43 51.46654 -0.48214 93 ft 15 kts 270°
2026-05-07 18:43 51.46653 -0.48402 95 ft 19 kts 269°
2026-05-07 18:43 51.46654 -0.48627 94 ft 22 kts 271°
2026-05-07 18:44 51.46615 -0.48760 93 ft 9 kts 198°
2026-05-07 18:44 51.46611 -0.48762 93 ft 0 kts 195°
2026-05-07 18:45 51.46588 -0.48772 93 ft 7 kts 195°
2026-05-07 18:45 51.46523 -0.48779 93 ft 12 kts 166°
2026-05-07 18:46 51.46480 -0.48659 93 ft 16 kts 98°
2026-05-07 18:46 51.46479 -0.48441 94 ft 23 kts 89°
2026-05-07 18:46 51.46478 -0.48174 93 ft 27 kts 90°
2026-05-07 18:46 51.46478 -0.47656 88 ft 79 kts 89°
2026-05-07 18:47 51.46485 -0.46419 98 ft 139 kts 89°
2026-05-07 18:47 51.46481 -0.44756 528 ft 153 kts 92°
2026-05-07 18:47 51.46426 -0.43002 1113 ft 163 kts 98°
2026-05-07 18:47 51.46289 -0.41129 1669 ft 177 kts 101°
2026-05-07 18:48 51.46081 -0.39078 2254 ft 194 kts 102°
2026-05-07 18:48 51.45810 -0.36848 2842 ft 214 kts 102°
2026-05-07 18:48 51.45473 -0.34374 3378 ft 241 kts 103°
2026-05-07 18:48 51.45061 -0.31594 3854 ft 272 kts 103°
2026-05-07 18:49 51.44572 -0.28507 4327 ft 298 kts 106°
2026-05-07 18:49 51.43826 -0.25503 5387 ft 279 kts 113°
2026-05-07 18:49 51.43067 -0.22711 5774 ft 271 kts 113°
2026-05-07 18:49 51.42316 -0.19951 5961 ft 270 kts 113°
2026-05-07 18:50 51.41565 -0.17193 6005 ft 270 kts 113°
2026-05-07 18:50 51.40835 -0.14433 6010 ft 269 kts 110°
2026-05-07 18:50 51.40303 -0.11560 6012 ft 269 kts 103°
2026-05-07 18:50 51.39901 -0.08626 6029 ft 270 kts 101°
2026-05-07 18:51 51.39541 -0.05656 6862 ft 273 kts 101°
2026-05-07 18:51 51.39173 -0.02644 7862 ft 278 kts 102°
2026-05-07 18:51 51.38780 0.00427 8828 ft 284 kts 103°
2026-05-07 18:51 51.38365 0.03558 9813 ft 289 kts 104°
2026-05-07 18:52 51.37927 0.06767 10454 ft 305 kts 104°
2026-05-07 18:52 51.37448 0.10203 10804 ft 328 kts 104°
2026-05-07 18:52 51.36935 0.13838 11434 ft 338 kts 104°
2026-05-07 18:52 51.36411 0.17542 12225 ft 343 kts 104°
2026-05-07 18:53 51.35883 0.21282 13059 ft 347 kts 104°
2026-05-07 18:53 51.35351 0.25078 13885 ft 351 kts 104°
2026-05-07 18:53 51.34811 0.28912 14615 ft 355 kts 104°
2026-05-07 18:53 51.34263 0.32787 15315 ft 360 kts 104°
2026-05-07 18:54 51.33703 0.36711 16004 ft 364 kts 104°
2026-05-07 18:54 51.33134 0.40690 16679 ft 369 kts 104°
2026-05-07 18:54 51.32557 0.44707 17166 ft 374 kts 104°
2026-05-07 18:54 51.31973 0.48789 17852 ft 379 kts 104°
2026-05-07 18:55 51.31383 0.52915 18504 ft 384 kts 104°
2026-05-07 18:55 51.30782 0.57090 19152 ft 388 kts 104°
2026-05-07 18:55 51.30342 0.61317 19805 ft 393 kts 96°
2026-05-07 18:55 51.30181 0.65628 20475 ft 397 kts 94°
2026-05-07 18:56 51.30025 0.70043 21136 ft 400 kts 94°
2026-05-07 18:56 51.29868 0.74450 21771 ft 404 kts 94°
2026-05-07 18:56 51.29705 0.78959 22416 ft 408 kts 95°
2026-05-07 18:56 51.29543 0.83481 22896 ft 412 kts 95°
2026-05-07 18:57 51.29393 0.87654 23014 ft 414 kts 95°
2026-05-07 18:57 51.29225 0.92261 23053 ft 417 kts 95°
2026-05-07 18:57 51.29053 0.96835 23073 ft 418 kts 95°
2026-05-07 18:57 51.28873 1.01452 23077 ft 419 kts 95°
2026-05-07 18:58 51.28686 1.06152 23076 ft 419 kts 95°
2026-05-07 18:58 51.28514 1.10479 23077 ft 419 kts 95°
2026-05-07 18:58 51.28349 1.14636 23076 ft 419 kts 95°
2026-05-07 18:58 51.28183 1.18830 23076 ft 419 kts 95°
2026-05-07 18:59 51.28006 1.23274 23076 ft 419 kts 95°
2026-05-07 18:59 51.27821 1.27915 23076 ft 419 kts 95°
2026-05-07 18:59 51.27652 1.32099 23077 ft 419 kts 95°
2026-05-07 18:59 51.27480 1.36303 23078 ft 419 kts 95°
2026-05-07 19:00 51.27285 1.40946 23077 ft 419 kts 95°
2026-05-07 19:00 51.27107 1.45072 23070 ft 419 kts 95°
2026-05-07 19:00 51.26905 1.49718 23071 ft 420 kts 95°
2026-05-07 19:00 51.26703 1.54368 23072 ft 420 kts 95°
2026-05-07 19:01 51.26503 1.59019 23072 ft 420 kts 95°
2026-05-07 19:01 51.26317 1.63349 23074 ft 420 kts 95°
2026-05-07 19:01 51.26151 1.67172 23076 ft 420 kts 95°
2026-05-07 19:01 51.25958 1.71566 23077 ft 420 kts 95°
2026-05-07 19:02 51.25824 1.74576 23078 ft 420 kts 95°
2026-05-07 19:02 51.25694 1.77435 23078 ft 420 kts 95°
2026-05-07 19:02 51.25486 1.82006 23080 ft 420 kts 95°
2026-05-07 19:02 51.25294 1.86213 23076 ft 420 kts 95°
2026-05-07 19:03 51.25134 1.89677 23082 ft 420 kts 95°
2026-05-07 19:03 51.24936 1.93907 23088 ft 420 kts 95°
2026-05-07 19:03 51.24749 1.97890 23091 ft 421 kts 95°
2026-05-07 19:03 51.24529 2.02549 23094 ft 421 kts 95°
2026-05-07 19:04 51.24307 2.07207 23091 ft 421 kts 95°
2026-05-07 19:04 51.24085 2.11865 23093 ft 421 kts 95°
2026-05-07 19:04 51.23862 2.16520 23098 ft 421 kts 95°
2026-05-07 19:04 51.23636 2.21177 23098 ft 421 kts 95°
2026-05-07 19:05 51.23352 2.25819 23089 ft 420 kts 102°
2026-05-07 19:05 51.22646 2.30328 23096 ft 419 kts 106°
2026-05-07 19:05 51.21892 2.34823 23093 ft 419 kts 106°
2026-05-07 19:05 51.21135 2.39309 23091 ft 419 kts 106°
2026-05-07 19:06 51.20370 2.43789 23090 ft 419 kts 107°
2026-05-07 19:06 51.18833 2.52742 23095 ft 419 kts 107°
2026-05-07 19:06 51.18065 2.57218 23092 ft 419 kts 107°
2026-05-07 19:07 51.17296 2.61703 23100 ft 419 kts 107°
2026-05-07 19:07 51.16537 2.66116 23096 ft 419 kts 107°
2026-05-07 19:07 51.15763 2.70600 23092 ft 419 kts 107°
2026-05-07 19:07 51.14984 2.75107 22823 ft 415 kts 107°
2026-05-07 19:08 51.14219 2.79520 22243 ft 411 kts 107°
2026-05-07 19:08 51.13467 2.83833 21725 ft 408 kts 107°
2026-05-07 19:08 51.12709 2.88161 21217 ft 404 kts 107°
2026-05-07 19:08 51.12009 2.92524 20791 ft 399 kts 99°
2026-05-07 19:09 51.11816 2.96904 20368 ft 394 kts 92°
2026-05-07 19:09 51.11736 3.01227 19781 ft 386 kts 92°
2026-05-07 19:09 51.11662 3.05417 18844 ft 381 kts 92°
2026-05-07 19:09 51.11586 3.09600 17862 ft 375 kts 92°
2026-05-07 19:10 51.11512 3.13753 16989 ft 365 kts 92°
2026-05-07 19:10 51.11443 3.17702 16101 ft 358 kts 92°
2026-05-07 19:10 51.11378 3.21632 15204 ft 352 kts 92°
2026-05-07 19:10 51.11316 3.25494 14332 ft 347 kts 92°
2026-05-07 19:11 51.11257 3.29350 13411 ft 342 kts 92°
2026-05-07 19:11 51.11198 3.33115 12519 ft 337 kts 92°
2026-05-07 19:11 51.11135 3.36824 12199 ft 336 kts 92°
2026-05-07 19:11 51.11069 3.40557 12064 ft 337 kts 92°
2026-05-07 19:12 51.11002 3.44281 12086 ft 337 kts 92°
2026-05-07 19:12 51.10934 3.48027 12088 ft 339 kts 92°
2026-05-07 19:12 51.10866 3.51722 12089 ft 338 kts 92°
2026-05-07 19:12 51.10797 3.55460 12090 ft 338 kts 92°
2026-05-07 19:13 51.10727 3.59200 12091 ft 338 kts 92°
2026-05-07 19:13 51.10657 3.62941 12090 ft 338 kts 92°
2026-05-07 19:13 51.10587 3.66682 12089 ft 338 kts 92°
2026-05-07 19:13 51.10516 3.70419 12090 ft 338 kts 92°
2026-05-07 19:14 51.10444 3.74168 12088 ft 338 kts 92°
2026-05-07 19:14 51.10373 3.77899 12052 ft 337 kts 92°
2026-05-07 19:14 51.10301 3.81604 11556 ft 334 kts 92°
2026-05-07 19:14 51.10226 3.85278 11058 ft 331 kts 92°
2026-05-07 19:15 51.10149 3.88934 10574 ft 329 kts 92°
2026-05-07 19:15 51.10071 3.92562 10121 ft 327 kts 92°
2026-05-07 19:15 51.09990 3.96155 9644 ft 324 kts 92°
2026-05-07 19:15 51.09910 3.99722 9160 ft 321 kts 92°
2026-05-07 19:16 51.09831 4.03264 8695 ft 318 kts 92°
2026-05-07 19:16 51.09753 4.06759 8239 ft 315 kts 92°
2026-05-07 19:16 51.09675 4.10231 8065 ft 313 kts 92°
2026-05-07 19:16 51.09598 4.13697 8084 ft 314 kts 92°
2026-05-07 19:17 51.09520 4.17177 8083 ft 315 kts 92°
2026-05-07 19:17 51.09441 4.20662 8092 ft 315 kts 92°
2026-05-07 19:17 51.09361 4.24134 8083 ft 315 kts 92°
2026-05-07 19:17 51.09281 4.27614 8090 ft 315 kts 92°
2026-05-07 19:18 51.09201 4.31098 8082 ft 315 kts 92°
2026-05-07 19:18 51.09121 4.34579 8082 ft 315 kts 92°
2026-05-07 19:18 51.09040 4.38059 8092 ft 315 kts 92°
2026-05-07 19:18 51.08959 4.41539 8082 ft 315 kts 92°
2026-05-07 19:19 51.08878 4.44976 8082 ft 315 kts 92°
2026-05-07 19:19 51.08796 4.48498 8082 ft 315 kts 92°
2026-05-07 19:19 51.08715 4.51917 8079 ft 307 kts 92°
2026-05-07 19:19 51.08638 4.55210 8087 ft 294 kts 92°
2026-05-07 19:20 51.08562 4.58457 8092 ft 293 kts 92°
2026-05-07 19:20 51.08486 4.61705 8088 ft 293 kts 92°
2026-05-07 19:20 51.08409 4.64941 8078 ft 292 kts 92°
2026-05-07 19:20 51.08332 4.68157 7760 ft 290 kts 92°
2026-05-07 19:21 51.08257 4.71352 7405 ft 288 kts 92°
2026-05-07 19:21 51.08180 4.74524 7061 ft 286 kts 92°
2026-05-07 19:21 51.08064 4.77670 6729 ft 284 kts 100°
2026-05-07 19:21 51.07334 4.80490 6596 ft 272 kts 128°
2026-05-07 19:22 51.05934 4.82395 6476 ft 262 kts 149°
2026-05-07 19:22 51.04367 4.83768 6346 ft 252 kts 152°
2026-05-07 19:22 51.02862 4.85013 6184 ft 235 kts 153°
2026-05-07 19:22 51.01464 4.86153 6051 ft 217 kts 153°
2026-05-07 19:23 51.00144 4.87080 5888 ft 199 kts 168°
2026-05-07 19:23 50.98800 4.86993 5556 ft 195 kts 199°
2026-05-07 19:23 50.97875 4.85875 6074 ft 129 kts 243°
2026-05-07 19:23 50.97700 4.84635 5820 ft 144 kts 264°
2026-05-07 19:24 50.97491 4.82757 6440 ft 171 kts 253°
2026-05-07 19:24 50.97063 4.80733 6787 ft 220 kts 244°
2026-05-07 19:24 50.96028 4.78649 7004 ft 261 kts 227°
2026-05-07 19:24 50.95075 4.76031 7213 ft 291 kts 252°
2026-05-07 19:25 50.94549 4.72854 7310 ft 312 kts 254°
2026-05-07 19:25 50.93742 4.69538 7536 ft 321 kts 237°
2026-05-07 19:25 50.92070 4.67324 8197 ft 317 kts 204°
2026-05-07 19:25 50.89865 4.66530 7990 ft 341 kts 182°
2026-05-07 19:26 50.87408 4.66616 7485 ft 363 kts 181°
2026-05-07 19:26 50.84748 4.65893 7263 ft 403 kts 189°
2026-05-07 19:26 50.82593 4.65627 8740 ft 379 kts 182°